DECAYED

STARLINK-1865, 46741 (Decayed)

Orbit data source: Space-Track

STARLINK-1865, 46741 was a payload satellite owned by SpaceX/Seattle (US) in LEO that was launched on Sat, 24 Oct 2020 UTC via an FALCON 9 launch vehicle from the Air Force Eastern Test Range (AFETR). Payload-class satellites include a variety of spacecraft equipped with specific instruments for various scientific and technological missions. These include communications satellites like Starlink; space stations such as the ISS; scientific satellites like the Hubble; Earth observation satellites from companies like Planet Labs, Umbra, and HawkEye 360; GPS; miniature CubeSats for education and research; and military/defense satellites.

Not visible in the next 10 days
Identifier
46741, 2020-074C
Orbit
Decayed
Country
Flag of USUS
Related business
Manufacturer
SpaceX/Seattle
Mission
Decayed Commercial Communications
Bus & Motor
STARLINK, Unknown motor
Mass
260 kg wet, ~248 kg dry
Launch date (UTC)
2020-10-24 (6 years ago)
Launch vehicle
FALCON 9
Launch site
Air Force Eastern Test Range (AFETR)
Object type
Payload
Rocket body
Debris
Shape & HBR
Box + 1 Pan, 10.1 m
Radar Cross Section
13.562 m², Large (>1 m²)

Expand to show TLE details & history
Last TLE update: 2 years ago

TLE from 2 years ago
0 STARLINK-1865
1 46741U 20074C   25057.68475494  .05306704  12120-4  12153-2 0  9990
2 46741  53.0290 159.8244 0009253 329.5751 186.1768 16.29133420240641
Epoch: 2025-02-26T16:26Z
TLE epoch observation values (Epoch: 2025-02-26T16:26:02.826Z)
Latitude
19.20279°
Longitude
-78.56842°
Altitude
201.333 km
Speed
7.785 km/s
True Right ascension
21h 38m 51s
True Declination
19° 05' 14"
Sunlit
Object was in daylight at epoch
Visualization orbit readout
Latitude
Unknown
Longitude
Unknown
Altitude
Unknown
Speed
Unknown
Apparent Right ascension
Unknown
Apparent Declination
Unknown
Sunlit
N/A
Visualization observer readout
Local Sidereal Time
11:19:39
Azimuth
Unknown
Elevation
Unknown
Doppler factor
Unknown
Orbital elements
Apogee altitude
201.241 km
Perigee altitude
189.076 km
Semi-major axis
6,573.296 km
Eccentricity
0.00093
Inclination
53.029°
RAAN
159.8244°
Arg. of periapsis
329.5751°
True anomaly
186.1654°
Mean anomaly
186.1768°
Eccentric anomaly
186.1711°
Mean motion
4.07257 °/min
Orbital period
88.4 mins
BSTAR
0.0012153
Loading maneuver chart data...
Computing Atmospheric mass density...

Documentation

Showing up to 5 results
|